| time (UTC) | temp C | wind direction | speed KPH | gust KPH | rain 1hr cm | rain 24hr cm | rain mn cm | humidity % | barometer mb |
| 20260502163232 | 22 | 0.0 | 0.0 | 0.00 | 0.00 | 0.00 | 29 | 1019.5 | |
| 20260502162232 | 22 | 0.0 | 0.0 | 0.00 | 0.00 | 0.00 | 30 | 1019.6 | |
| 20260502161232 | 22 | 0.0 | 0.0 | 0.00 | 0.00 | 0.00 | 30 | 1019.7 | |
| 20260502160232 | 22 | 0.0 | 0.0 | 0.00 | 0.00 | 0.00 | 30 | 1019.8 | |
| 20260502152232 | 22 | 0.0 | 0.0 | 0.00 | 0.00 | 0.00 | 29 | 1020.3 | |
| 20260502151232 | 22 | 0.0 | 0.0 | 0.00 | 0.00 | 0.00 | 30 | 1020.5 | |
| 20260502150232 | 22 | 0.0 | 0.0 | 0.00 | 0.00 | 0.00 | 29 | 1020.5 | |
| 20260502130232 | 23 | 0.0 | 0.0 | 0.00 | 0.00 | 0.00 | 31 | 1022.1 | |
| 20260502123232 | 23 | 0.0 | 0.0 | 0.00 | 0.00 | 0.00 | 31 | 1022.5 | |
| 20260502122232 | 23 | 0.0 | 0.0 | 0.00 | 0.00 | 0.00 | 31 | 1022.6 | |
| 20260502121232 | 22 | 0.0 | 0.0 | 0.00 | 0.00 | 0.00 | 32 | 1022.7 | |
| 20260502120232 | 22 | 0.0 | 0.0 | 0.00 | 0.00 | 0.00 | 32 | 1022.9 | |
| 20260502115232 | 22 | 0.0 | 0.0 | 0.00 | 0.00 | 0.00 | 32 | 1023.0 | |
| 20260502114232 | 22 | 0.0 | 0.0 | 0.00 | 0.00 | 0.00 | 29 | 1023.1 | |
| 20260502113232 | 22 | 0.0 | 0.0 | 0.00 | 0.00 | 0.00 | 30 | 1023.3 | |
| 20260502112232 | 23 | 0.0 | 0.0 | 0.00 | 0.00 | 0.00 | 29 | 1023.5 | |
| 20260502111243 | 22 | 0.0 | 0.0 | 0.00 | 0.00 | 0.00 | 33 | 1023.6 | |
| 20260502110230 | 22 | 0.0 | 0.0 | 0.00 | 0.00 | 0.00 | 33 | 1023.8 | |
| 20260502105230 | 22 | 0.0 | 0.0 | 0.00 | 0.00 | 0.00 | 29 | 1024.0 | |
| 20260502104230 | 22 | 0.0 | 0.0 | 0.00 | 0.00 | 0.00 | 34 | 1024.1 | |
| 20260502103230 | 22 | 0.0 | 0.0 | 0.00 | 0.00 | 0.00 | 33 | 1024.1 | |
| 20260502102230 | 22 | 0.0 | 0.0 | 0.00 | 0.00 | 0.00 | 34 | 1024.3 | |
| 20260502101230 | 22 | 0.0 | 0.0 | 0.00 | 0.00 | 0.00 | 36 | 1024.4 | |
| 20260502100230 | 22 | 0.0 | 0.0 | 0.00 | 0.00 | 0.00 | 38 | 1024.5 | |
| 20260502091230 | 22 | 0.0 | 0.0 | 0.00 | 0.00 | 0.00 | 38 | 1025.0 | |
| 20260502090230 | 22 | 0.0 | 0.0 | 0.00 | 0.00 | 0.00 | 38 | 1025.0 | |
| 20260502071230 | 23 | 0.0 | 0.0 | 0.00 | 0.00 | 0.00 | 36 | 1025.9 | |
| 20260502070230 | 23 | 0.0 | 0.0 | 0.00 | 0.00 | 0.00 | 35 | 1025.9 | |
| 20260502065230 | 23 | 0.0 | 0.0 | 0.00 | 0.00 | 0.00 | 35 | 1025.9 | |
| 20260502064230 | 23 | 0.0 | 0.0 | 0.00 | 0.00 | 0.00 | 35 | 1025.9 | |
| 20260502063230 | 23 | 0.0 | 0.0 | 0.00 | 0.00 | 0.00 | 35 | 1026.0 | |
| 20260502062230 | 23 | 0.0 | 0.0 | 0.00 | 0.00 | 0.00 | 35 | 1026.1 | |
| 20260502061230 | 23 | 0.0 | 0.0 | 0.00 | 0.00 | 0.00 | 35 | 1026.0 | |
| 20260502060230 | 23 | 0.0 | 0.0 | 0.00 | 0.00 | 0.00 | 35 | 1025.9 | |
| 20260502055230 | 23 | 0.0 | 0.0 | 0.00 | 0.00 | 0.00 | 34 | 1025.9 | |
| 20260502054230 | 22 | 0.0 | 0.0 | 0.00 | 0.00 | 0.00 | 34 | 1025.9 | |
| 20260502053230 | 22 | 0.0 | 0.0 | 0.00 | 0.00 | 0.00 | 34 | 1025.9 | |
| 20260502052230 | 22 | 0.0 | 0.0 | 0.00 | 0.00 | 0.00 | 34 | 1025.9 | |
| 20260502051235 | 21 | 0.0 | 0.0 | 0.00 | 0.00 | 0.00 | 35 | 1025.9 | |
| 20260502050229 | 21 | 0.0 | 0.0 | 0.00 | 0.00 | 0.00 | 35 | 1025.9 | |
| 20260502045229 | 21 | 0.0 | 0.0 | 0.00 | 0.00 | 0.00 | 35 | 1025.8 | |
| 20260502044229 | 21 | 0.0 | 0.0 | 0.00 | 0.00 | 0.00 | 35 | 1025.8 | |
| 20260502043229 | 21 | 0.0 | 0.0 | 0.00 | 0.00 | 0.00 | 36 | 1025.8 | |
| 20260502042229 | 21 | 0.0 | 0.0 | 0.00 | 0.00 | 0.00 | 36 | 1025.8 | |
| 20260502041229 | 21 | 0.0 | 0.0 | 0.00 | 0.00 | 0.00 | 36 | 1025.8 | |
| 20260502040229 | 21 | 0.0 | 0.0 | 0.00 | 0.00 | 0.00 | 35 | 1025.8 | |
| 20260502035229 | 21 | 0.0 | 0.0 | 0.00 | 0.00 | 0.00 | 35 | 1025.7 | |
| 20260502034229 | 21 | 0.0 | 0.0 | 0.00 | 0.00 | 0.00 | 35 | 1025.8 | |
| 20260502033229 | 21 | 0.0 | 0.0 | 0.00 | 0.00 | 0.00 | 35 | 1025.7 | |
| 20260502032229 | 21 | 0.0 | 0.0 | 0.00 | 0.00 | 0.00 | 35 | 1025.7 | |
| 20260502031229 | 21 | 0.0 | 0.0 | 0.00 | 0.00 | 0.00 | 35 | 1025.8 | |
| 20260502030229 | 21 | 0.0 | 0.0 | 0.00 | 0.00 | 0.00 | 35 | 1025.8 | |
| 20260502025229 | 21 | 0.0 | 0.0 | 0.00 | 0.00 | 0.00 | 35 | 1025.9 | |
| 20260502024229 | 21 | 0.0 | 0.0 | 0.00 | 0.00 | 0.00 | 35 | 1025.9 | |
| 20260502023229 | 21 | 0.0 | 0.0 | 0.00 | 0.00 | 0.00 | 35 | 1025.9 | |
| 20260502022229 | 21 | 0.0 | 0.0 | 0.00 | 0.00 | 0.00 | 35 | 1025.9 | |
| 20260502021229 | 21 | 0.0 | 0.0 | 0.00 | 0.00 | 0.00 | 35 | 1025.9 | |
| 20260502020229 | 21 | 0.0 | 0.0 | 0.00 | 0.00 | 0.00 | 36 | 1025.9 | |
| 20260502015229 | 21 | 0.0 | 0.0 | 0.00 | 0.00 | 0.00 | 36 | 1025.9 | |
| 20260502014229 | 21 | 0.0 | 0.0 | 0.00 | 0.00 | 0.00 | 36 | 1026.0 | |
| 20260502013229 | 21 | 0.0 | 0.0 | 0.00 | 0.00 | 0.00 | 36 | 1025.9 | |
| 20260502012229 | 21 | 0.0 | 0.0 | 0.00 | 0.00 | 0.00 | 36 | 1026.0 | |
| 20260502011229 | 21 | 0.0 | 0.0 | 0.00 | 0.00 | 0.00 | 36 | 1026.0 | |
| 20260502010229 | 21 | 0.0 | 0.0 | 0.00 | 0.00 | 0.00 | 36 | 1026.1 | |
| 20260502005229 | 21 | 0.0 | 0.0 | 0.00 | 0.00 | 0.00 | 36 | 1026.0 | |
| 20260502004229 | 21 | 0.0 | 0.0 | 0.00 | 0.00 | 0.00 | 36 | 1026.0 | |
| 20260502003229 | 21 | 0.0 | 0.0 | 0.00 | 0.00 | 0.00 | 36 | 1026.1 | |
| 20260502002229 | 21 | 0.0 | 0.0 | 0.00 | 0.00 | 0.00 | 36 | 1026.1 | |
| 20260502001229 | 21 | 0.0 | 0.0 | 0.00 | 0.00 | 0.00 | 36 | 1026.1 | |
| 20260502000229 | 21 | 0.0 | 0.0 | 0.00 | 0.00 | 0.00 | 36 | 1026.1 | |
| 20260501235229 | 21 | 0.0 | 0.0 | 0.00 | 0.00 | 0.00 | 36 | 1026.2 | |
| 20260501234229 | 21 | 0.0 | 0.0 | 0.00 | 0.00 | 0.00 | 36 | 1026.2 | |
| 20260501233229 | 22 | 0.0 | 0.0 | 0.00 | 0.00 | 0.00 | 35 | 1026.3 | |
| 20260501232229 | 22 | 0.0 | 0.0 | 0.00 | 0.00 | 0.00 | 35 | 1026.2 | |
| 20260501231232 | 22 | 0.0 | 0.0 | 0.00 | 0.00 | 0.00 | 35 | 1026.2 | |
| 20260501230227 | 22 | 0.0 | 0.0 | 0.00 | 0.00 | 0.00 | 36 | 1026.2 | |
| 20260501225228 | 22 | 0.0 | 0.0 | 0.00 | 0.00 | 0.00 | 35 | 1026.4 | |
| 20260501224227 | 22 | 0.0 | 0.0 | 0.00 | 0.00 | 0.00 | 35 | 1026.4 | |
| 20260501223227 | 22 | 0.0 | 0.0 | 0.00 | 0.00 | 0.00 | 36 | 1026.4 | |
| 20260501222227 | 22 | 0.0 | 0.0 | 0.00 | 0.00 | 0.00 | 36 | 1026.3 | |
| 20260501221227 | 22 | 0.0 | 0.0 | 0.00 | 0.00 | 0.00 | 36 | 1026.4 | |
| 20260501220227 | 22 | 0.0 | 0.0 | 0.00 | 0.00 | 0.00 | 36 | 1026.4 | |
| 20260501215227 | 22 | 0.0 | 0.0 | 0.00 | 0.00 | 0.00 | 36 | 1026.3 | |
| 20260501214227 | 22 | 0.0 | 0.0 | 0.00 | 0.00 | 0.00 | 36 | 1026.3 | |
| 20260501213227 | 22 | 0.0 | 0.0 | 0.00 | 0.00 | 0.00 | 36 | 1026.2 | |
| 20260501212227 | 22 | 0.0 | 0.0 | 0.00 | 0.00 | 0.00 | 36 | 1026.2 | |
| 20260501211227 | 22 | 0.0 | 0.0 | 0.00 | 0.00 | 0.00 | 36 | 1026.2 | |
| 20260501210228 | 22 | 0.0 | 0.0 | 0.00 | 0.00 | 0.00 | 35 | 1026.2 | |
| 20260501205227 | 22 | 0.0 | 0.0 | 0.00 | 0.00 | 0.00 | 35 | 1026.2 | |
| 20260501204227 | 22 | 0.0 | 0.0 | 0.00 | 0.00 | 0.00 | 36 | 1026.0 | |
| 20260501203227 | 22 | 0.0 | 0.0 | 0.00 | 0.00 | 0.00 | 36 | 1026.1 | |
| 20260501202227 | 22 | 0.0 | 0.0 | 0.00 | 0.00 | 0.00 | 35 | 1026.1 | |
| 20260501201227 | 22 | 0.0 | 0.0 | 0.00 | 0.00 | 0.00 | 35 | 1026.1 | |
| 20260501200227 | 22 | 0.0 | 0.0 | 0.00 | 0.00 | 0.00 | 35 | 1026.0 | |
| 20260501195227 | 22 | 0.0 | 0.0 | 0.00 | 0.00 | 0.00 | 35 | 1026.1 | |
| 20260501194227 | 22 | 0.0 | 0.0 | 0.00 | 0.00 | 0.00 | 35 | 1025.9 | |
| 20260501193228 | 22 | 0.0 | 0.0 | 0.00 | 0.00 | 0.00 | 35 | 1025.9 | |
| 20260501192228 | 22 | 0.0 | 0.0 | 0.00 | 0.00 | 0.00 | 35 | 1025.9 | |
| 20260501191227 | 22 | 0.0 | 0.0 | 0.00 | 0.00 | 0.00 | 35 | 1025.9 | |
| 20260501190227 | 22 | 0.0 | 0.0 | 0.00 | 0.00 | 0.00 | 35 | 1025.8 | |
| 20260501185227 | 22 | 0.0 | 0.0 | 0.00 | 0.00 | 0.00 | 35 | 1025.7 | |
| 20260501184228 | 22 | 0.0 | 0.0 | 0.00 | 0.00 | 0.00 | 35 | 1025.8 | |
| 20260501183227 | 22 | 0.0 | 0.0 | 0.00 | 0.00 | 0.00 | 35 | 1025.6 | |
| 20260501182227 | 22 | 0.0 | 0.0 | 0.00 | 0.00 | 0.00 | 35 | 1025.5 | |
| 20260501181227 | 22 | 0.0 | 0.0 | 0.00 | 0.00 | 0.00 | 35 | 1025.4 | |
| 20260501180227 | 22 | 0.0 | 0.0 | 0.00 | 0.00 | 0.00 | 35 | 1025.3 | |
| 20260501175227 | 22 | 0.0 | 0.0 | 0.00 | 0.00 | 0.00 | 34 | 1025.3 | |
| 20260501174227 | 22 | 0.0 | 0.0 | 0.00 | 0.00 | 0.00 | 34 | 1025.2 | |
| 20260501173227 | 22 | 0.0 | 0.0 | 0.00 | 0.00 | 0.00 | 34 | 1025.2 | |
| 20260501172227 | 22 | 0.0 | 0.0 | 0.00 | 0.00 | 0.00 | 34 | 1025.2 | |
| 20260501171231 | 22 | 0.0 | 0.0 | 0.00 | 0.00 | 0.00 | 34 | 1025.2 | |
| 20260501170226 | 22 | 0.0 | 0.0 | 0.00 | 0.00 | 0.00 | 34 | 1025.2 | |
| 20260501165226 | 22 | 0.0 | 0.0 | 0.00 | 0.00 | 0.00 | 35 | 1025.2 | |
| 20260501164226 | 22 | 0.0 | 0.0 | 0.00 | 0.00 | 0.00 | 34 | 1025.3 |